Date String (YYYY-MM-DD hh:mm:ss) UTC,Instrument flags,absolute air pressure of the measurement (hPa),sample flow rate (lpm),inlet stack bypass flow (lpm),air temperature of the measurement (°C),ambient temperature measured by the external sensor (°C),aerosol sample conditioner tube jacket temperature (°C),OPC LED temperature (°C),internal box temperature (°C),relative humidity of the measurement (%),span deviation,mass concentration of particles derived from Lorenz-Mie calculation of OPC scattering (μg/m³),mass concentration of particles derived from Lorenz-Mie calculation of OPC scattering (μg/m³),mass concentration of particles derived from Lorenz-Mie calculation of OPC scattering (μg/m³)
DateTimeUTC,F1_M11,P_M11,Q1_M11,Q2_M11,T1_M11,T2_M11,T3_M11,T4_M11,T5_M11,U1_M11,ZSPAN_M11,X0_M11,X2_M11,X1_M11
2023-12-12 12:00:00,SystemResetWarning,0833.3,5.00,000.00,022.3,021.4,000.0,030.6,023.7,22.2,0000.0,0007.87,0006.35,0006.23
2023-12-12 12:01:00,SystemResetWarning,0833.3,5.00,000.00,022.3,021.4,000.0,030.6,023.7,22.2,0000.0,0007.88,0006.38,0006.25
2023-12-12 12:02:00,SystemResetWarning,0832.9,5.00,000.00,022.3,021.4,000.0,030.6,023.7,22.2,0000.0,0007.90,0006.39,0006.27
2023-12-12 12:03:00,SystemResetWarning,0832.9,5.00,000.00,022.3,021.4,000.0,030.6,023.7,22.2,0000.0,0007.99,0006.44,0006.28
2023-12-12 12:04:00,SystemResetWarning,0833.0,5.00,000.00,022.3,021.4,000.0,030.6,023.6,22.2,0000.0,0007.99,0006.45,0006.30
2023-12-12 12:05:00,SystemResetWarning,0833.0,5.00,000.00,022.3,021.4,000.0,030.6,023.7,22.1,0000.0,0008.02,0006.46,0006.32
2023-12-12 12:06:00,SystemResetWarning,0833.0,5.00,000.00,022.3,021.4,000.0,030.6,023.7,22.1,0000.0,0008.03,0006.48,0006.33
2023-12-12 12:07:00,SystemResetWarning,0833.0,5.00,000.00,022.3,021.4,000.0,030.6,023.6,22.1,0000.0,0008.04,0006.47,0006.31
2023-12-12 12:08:00,SystemResetWarning,0832.9,5.00,000.00,022.3,021.4,000.0,030.6,023.6,22.1,0000.0,0008.05,0006.46,0006.31
2023-12-12 12:09:00,SystemResetWarning,0833.0,5.00,000.00,022.3,021.4,000.0,030.6,023.7,22.1,0000.0,0008.05,0006.46,0006.30
2023-12-12 12:10:00,SystemResetWarning,0833.0,5.00,000.00,022.3,021.4,000.0,030.6,023.7,22.1,0000.0,0008.06,0006.46,0006.29
2023-12-12 12:11:00,SystemResetWarning,0832.9,5.00,000.00,022.3,021.4,000.0,030.6,023.6,22.1,0000.0,0008.05,0006.46,0006.30
2023-12-12 12:12:00,SystemResetWarning,0833.1,5.00,000.00,022.3,021.4,000.0,030.6,023.6,22.1,0000.0,0008.08,0006.45,0006.28
2023-12-12 12:13:00,SystemResetWarning,0833.3,5.00,000.00,022.3,021.4,000.0,030.6,023.6,22.1,0000.0,0008.07,0006.43,0006.27
2023-12-12 12:14:00,SystemResetWarning,0833.1,5.00,000.00,022.3,021.4,000.0,030.6,023.6,22.1,0000.0,0007.99,0006.39,0006.25
2023-12-12 12:15:00,SystemResetWarning,0833.3,5.00,000.00,022.3,021.3,000.0,030.6,023.6,22.1,0000.0,0008.03,0006.40,0006.25
2023-12-12 12:16:00,SystemResetWarning,0833.1,5.00,000.00,022.3,021.3,000.0,030.6,023.6,22.1,0000.0,0007.99,0006.39,0006.25
2023-12-12 12:17:00,SystemResetWarning,0833.0,5.01,000.00,022.3,021.3,000.0,030.6,023.6,22.1,0000.0,0007.99,0006.39,0006.24
2023-12-12 12:18:00,SystemResetWarning,0833.0,5.00,000.00,022.3,021.3,000.0,030.6,023.6,22.1,0000.0,0007.99,0006.40,0006.25
2023-12-12 12:19:00,SystemResetWarning,0833.1,5.00,000.00,022.3,021.3,000.0,030.6,023.6,22.1,0000.0,0008.22,0006.39,0006.23
2023-12-12 12:20:00,SystemResetWarning,0833.0,5.00,000.00,022.3,021.3,000.0,030.6,023.5,22.1,0000.0,0008.46,0006.36,0006.19
2023-12-12 12:21:00,SystemResetWarning,0833.3,5.00,000.00,022.2,021.3,000.0,030.6,023.5,22.1,0000.0,0008.41,0006.27,0006.09
2023-12-12 12:22:00,SystemResetWarning,0833.0,5.00,000.00,022.2,021.3,000.0,030.6,023.5,22.0,0000.0,0008.33,0006.17,0005.98
2023-12-12 12:23:00,SystemResetWarning,0833.1,5.00,000.00,022.2,021.2,000.0,030.6,023.5,22.0,0000.0,0008.22,0006.05,0005.88
2023-12-12 12:24:00,SystemResetWarning,0833.0,5.00,000.00,022.2,021.2,000.0,030.6,023.5,22.0,0000.0,0008.11,0005.94,0005.77
2023-12-12 12:25:00,SystemResetWarning,0833.0,5.00,000.00,022.2,021.2,000.0,030.6,023.4,22.0,0000.0,0008.06,0005.83,0005.65
2023-12-12 12:26:00,SystemResetWarning,0833.1,5.00,000.00,022.2,021.2,000.0,030.5,023.4,22.0,0000.0,0007.91,0005.67,0005.51
2023-12-12 12:27:00,SystemResetWarning,0833.0,4.99,000.00,022.1,021.2,000.0,030.5,023.4,22.0,0000.0,0007.79,0005.52,0005.36
2023-12-12 12:28:00,SystemResetWarning,0833.0,5.00,000.00,022.1,021.2,000.0,030.5,023.4,22.0,0000.0,0007.69,0005.36,0005.20
2023-12-12 12:29:00,SystemResetWarning,0833.0,5.00,000.00,022.1,021.1,000.0,030.5,023.4,22.0,0000.0,0007.54,0005.18,0005.03
2023-12-12 12:30:00,SystemResetWarning,0833.0,5.00,000.00,022.1,021.1,000.0,030.5,023.3,22.0,0000.0,0007.34,0005.01,0004.86
2023-12-12 12:31:00,SystemResetWarning,0833.0,5.00,000.00,022.1,021.1,000.0,030.5,023.3,22.0,0000.0,0006.52,0004.87,0004.72
2023-12-12 12:32:00,SystemResetWarning,0833.0,5.00,000.00,022.1,021.1,000.0,030.5,023.3,22.0,0000.0,0006.34,0004.76,0004.62
2023-12-12 12:33:00,SystemResetWarning,0833.0,5.00,000.00,022.0,021.1,000.0,030.5,023.2,22.0,0000.0,0006.15,0004.68,0004.56
2023-12-12 12:34:00,SystemResetWarning,0833.0,5.01,000.00,022.0,021.1,000.0,030.4,023.3,22.0,0000.0,0006.19,0004.61,0004.48
2023-12-12 12:35:00,SystemResetWarning,0833.0,5.00,000.00,022.0,021.0,000.0,030.4,023.2,22.0,0000.0,0006.16,0004.56,0004.43
2023-12-12 12:36:00,SystemResetWarning,0833.1,5.00,000.00,022.0,021.0,000.0,030.4,023.2,22.0,0000.0,0006.06,0004.53,0004.39
2023-12-12 12:37:00,SystemResetWarning,0833.4,5.00,000.00,022.0,021.0,000.0,030.4,023.2,22.0,0000.0,0006.08,0004.52,0004.38
2023-12-12 12:38:00,SystemResetWarning,0833.3,5.00,000.00,022.0,021.0,000.0,030.4,023.2,22.0,0000.0,0006.09,0004.51,0004.36
2023-12-12 12:39:00,SystemResetWarning,0833.1,5.00,000.00,022.0,021.0,000.0,030.4,023.2,22.0,0000.0,0006.54,0004.51,0004.35
2023-12-12 12:40:00,SystemResetWarning,0833.2,5.01,000.00,021.9,021.0,000.0,030.4,023.2,22.0,0000.0,0006.99,0004.52,0004.37
2023-12-12 12:41:00,SystemResetWarning,0833.2,5.00,000.00,021.9,021.0,000.0,030.4,023.2,22.0,0000.0,0007.01,0004.54,0004.39
2023-12-12 12:42:00,SystemResetWarning,0833.2,5.01,000.00,021.9,021.0,000.0,030.3,023.2,22.0,0000.0,0006.93,0004.57,0004.42
2023-12-12 12:43:00,SystemResetWarning,0833.2,5.00,000.00,021.9,020.9,000.0,030.3,023.2,22.0,0000.0,0007.01,0004.59,0004.46
2023-12-12 12:44:00,SystemResetWarning,0833.2,5.00,000.00,021.9,020.9,000.0,030.3,023.2,22.0,0000.0,0007.06,0004.62,0004.49
2023-12-12 12:45:00,SystemResetWarning,0833.2,5.00,000.00,021.9,020.9,000.0,030.3,023.2,22.0,0000.0,0006.91,0004.63,0004.51
2023-12-12 12:46:00,SystemResetWarning,0833.2,5.00,000.00,021.9,020.9,000.0,030.3,023.1,22.0,0000.0,0006.90,0004.64,0004.53
2023-12-12 12:47:00,SystemResetWarning,0833.2,5.00,000.00,021.9,020.9,000.0,030.3,023.1,22.0,0000.0,0006.90,0004.64,0004.53
2023-12-12 12:48:00,SystemResetWarning,0833.2,5.00,000.00,021.9,020.9,000.0,030.3,023.1,22.0,0000.0,0006.90,0004.62,0004.51
2023-12-12 12:49:00,SystemResetWarning,0833.2,5.00,000.00,021.9,020.9,000.0,030.3,023.1,22.0,0000.0,0006.81,0004.58,0004.48
2023-12-12 12:50:00,SystemResetWarning,0833.2,5.00,000.00,021.8,020.9,000.0,030.3,023.1,22.0,0000.0,0006.23,0004.55,0004.45
2023-12-12 12:51:00,SystemResetWarning,0833.2,5.00,000.00,021.8,020.9,000.0,030.3,023.1,22.0,0000.0,0005.74,0004.51,0004.42
2023-12-12 12:52:00,SystemResetWarning,0833.2,5.00,000.00,021.8,020.9,000.0,030.2,023.1,22.0,0000.0,0005.69,0004.48,0004.38
2023-12-12 12:53:00,SystemResetWarning,0833.2,5.00,000.00,021.8,020.9,000.0,030.2,023.0,22.0,0000.0,0005.67,0004.45,0004.36
2023-12-12 12:54:00,SystemResetWarning,0833.2,4.99,000.00,021.8,020.9,000.0,030.2,023.0,22.0,0000.0,0005.57,0004.43,0004.32
2023-12-12 12:55:00,SystemResetWarning,0833.2,5.00,000.00,021.8,020.8,000.0,030.2,023.0,22.0,0000.0,0005.50,0004.39,0004.29
2023-12-12 12:56:00,SystemResetWarning,0833.2,5.00,000.00,021.8,020.8,000.0,030.2,022.9,22.0,0000.0,0005.54,0004.39,0004.27
2023-12-12 12:57:00,SystemResetWarning,0833.2,5.00,000.00,021.7,020.8,000.0,030.2,022.9,22.1,0000.0,0005.56,0004.38,0004.26
2023-12-12 12:58:00,SystemResetWarning,0833.2,5.00,000.00,021.7,020.8,000.0,030.2,022.9,22.1,0000.0,0005.56,0004.37,0004.25
2023-12-12 12:59:00,SystemResetWarning,0833.2,5.00,000.00,021.7,020.8,000.0,030.2,022.8,22.1,0000.0,0005.66,0004.41,0004.27
